| time (UTC) | temp C | wind direction | speed KPH | gust KPH | rain 1hr cm | rain 24hr cm | rain mn cm | humidity % | barometer mb |
| 20260506104022 | 8 | 49 | 6.4 | 6.4 | 0.00 | 0.00 | 0.00 | 81 | 1013.5 |
| 20260506103519 | 8 | 58 | 9.7 | 12.9 | 0.00 | 0.00 | 0.00 | 81 | 1013.6 |
| 20260506103015 | 8 | 0 | 6.4 | 9.7 | 0.00 | 0.00 | 0.00 | 81 | 1013.5 |
| 20260506102514 | 8 | 346 | 0.0 | 0.0 | 0.00 | 0.00 | 0.00 | 81 | 1013.2 |
| 20260506102011 | 8 | 48 | 1.6 | 3.2 | 0.00 | 0.00 | 0.00 | 80 | 1013.0 |
| 20260506101507 | 8 | 31 | 4.8 | 6.4 | 0.00 | 0.00 | 0.00 | 79 | 1013.1 |
| 20260506101004 | 8 | 52 | 3.2 | 4.8 | 0.00 | 0.00 | 0.00 | 79 | 1012.9 |
| 20260506100503 | 8 | 39 | 4.8 | 6.4 | 0.00 | 0.00 | 0.00 | 79 | 1012.4 |
| 20260506100000 | 8 | 28 | 8.0 | 9.7 | 0.00 | 0.00 | 0.00 | 79 | 1012.6 |
| 20260506095459 | 8 | 81 | 3.2 | 4.8 | 0.00 | 0.00 | 0.00 | 79 | 1012.3 |
| 20260506094954 | 8 | 38 | 14.5 | 20.9 | 0.00 | 0.00 | 0.00 | 79 | 1012.3 |
| 20260506094453 | 8 | 41 | 3.2 | 4.8 | 0.00 | 0.00 | 0.00 | 80 | 1011.9 |
| 20260506093950 | 8 | 31 | 6.4 | 6.4 | 0.00 | 0.00 | 0.00 | 81 | 1011.7 |
| 20260506093448 | 8 | 102 | 6.4 | 11.3 | 0.00 | 0.00 | 0.00 | 81 | 1011.7 |
| 20260506092946 | 8 | 45 | 6.4 | 11.3 | 0.00 | 0.00 | 0.00 | 80 | 1011.8 |
| 20260506092443 | 8 | 72 | 4.8 | 14.5 | 0.00 | 0.00 | 0.00 | 82 | 1011.9 |
| 20260506091940 | 8 | 24 | 6.4 | 6.4 | 0.00 | 0.00 | 0.00 | 82 | 1011.8 |
| 20260506091438 | 8 | 56 | 3.2 | 4.8 | 0.00 | 0.00 | 0.00 | 83 | 1011.9 |
| 20260506090935 | 8 | 47 | 6.4 | 6.4 | 0.00 | 0.00 | 0.00 | 83 | 1011.9 |
| 20260506090433 | 8 | 41 | 8.0 | 11.3 | 0.00 | 0.00 | 0.00 | 82 | 1011.9 |
| 20260506085929 | 8 | 36 | 4.8 | 9.7 | 0.00 | 0.00 | 0.00 | 84 | 1012.1 |
| 20260506085426 | 8 | 53 | 6.4 | 11.3 | 0.00 | 0.00 | 0.00 | 84 | 1012.1 |
| 20260506084922 | 8 | 53 | 4.8 | 9.7 | 0.00 | 0.00 | 0.00 | 84 | 1011.7 |
| 20260506084420 | 8 | 2 | 9.7 | 11.3 | 0.00 | 0.00 | 0.00 | 84 | 1011.7 |
| 20260506083915 | 8 | 102 | 6.4 | 6.4 | 0.00 | 0.00 | 0.00 | 86 | 1011.7 |
| 20260506083413 | 8 | 33 | 6.4 | 6.4 | 0.00 | 0.00 | 0.00 | 87 | 1011.9 |
| 20260506082910 | 8 | 78 | 6.4 | 11.3 | 0.00 | 0.00 | 0.00 | 87 | 1011.8 |
| 20260506082407 | 8 | 20 | 4.8 | 6.4 | 0.00 | 0.00 | 0.00 | 88 | 1011.7 |
| 20260506081902 | 8 | 32 | 6.4 | 6.4 | 0.00 | 0.00 | 0.00 | 88 | 1011.4 |
| 20260506081401 | 8 | 17 | 8.0 | 9.7 | 0.00 | 0.00 | 0.00 | 88 | 1011.1 |
| 20260506080858 | 8 | 335 | 1.6 | 3.2 | 0.00 | 0.00 | 0.00 | 88 | 1011.2 |
| 20260506080355 | 8 | 29 | 6.4 | 9.7 | 0.00 | 0.00 | 0.00 | 88 | 1010.9 |
| 20260506073339 | 8 | 14 | 11.3 | 12.9 | 0.00 | 0.00 | 0.00 | 91 | 1011.1 |
| 20260506072835 | 8 | 17 | 6.4 | 6.4 | 0.00 | 0.00 | 0.00 | 91 | 1011.4 |
| 20260506072333 | 8 | 14 | 4.8 | 6.4 | 0.00 | 0.00 | 0.00 | 92 | 1011.1 |
| 20260506071831 | 8 | 31 | 8.0 | 14.5 | 0.00 | 0.00 | 0.00 | 92 | 1011.0 |
| 20260506071329 | 8 | 44 | 6.4 | 6.4 | 0.00 | 0.00 | 0.00 | 91 | 1011.3 |
| 20260506070825 | 8 | 58 | 4.8 | 4.8 | 0.00 | 0.00 | 0.00 | 91 | 1011.5 |
| 20260506070323 | 8 | 39 | 11.3 | 17.7 | 0.00 | 0.00 | 0.00 | 91 | 1011.4 |
| 20260506062300 | 8 | 56 | 1.6 | 3.2 | 0.00 | 0.00 | 0.00 | 92 | 1011.3 |
| 20260506061755 | 8 | 20 | 4.8 | 4.8 | 0.00 | 0.00 | 0.00 | 92 | 1012.1 |
| 20260506061253 | 8 | 113 | 1.6 | 4.8 | 0.00 | 0.00 | 0.00 | 93 | 1011.5 |
| 20260506060751 | 8 | 32 | 3.2 | 4.8 | 0.00 | 0.00 | 0.00 | 93 | 1011.1 |
| 20260506060248 | 8 | 52 | 9.7 | 12.9 | 0.00 | 0.00 | 0.00 | 93 | 1011.4 |
| 20260506051220 | 9 | 31 | 4.8 | 6.4 | 0.00 | 0.00 | 0.00 | 93 | 1011.2 |
| 20260506050718 | 9 | 56 | 4.8 | 9.7 | 0.00 | 0.00 | 0.00 | 93 | 1011.4 |
| 20260506050215 | 8 | 24 | 4.8 | 6.4 | 0.00 | 0.00 | 0.00 | 94 | 1011.1 |
| 20260506044706 | 8 | 26 | 6.4 | 9.7 | 0.00 | 0.00 | 0.00 | 94 | 1011.0 |
| 20260506044203 | 8 | 51 | 1.6 | 3.2 | 0.00 | 0.00 | 0.00 | 94 | 1011.0 |
| 20260506043700 | 8 | 29 | 4.8 | 4.8 | 0.00 | 0.00 | 0.00 | 94 | 1011.0 |
| 20260506043158 | 8 | 323 | 6.4 | 6.4 | 0.00 | 0.00 | 0.00 | 94 | 1011.0 |
| 20260506042657 | 8 | 13 | 9.7 | 14.5 | 0.00 | 0.00 | 0.00 | 94 | 1011.1 |
| 20260506042154 | 9 | 337 | 6.4 | 9.7 | 0.00 | 0.00 | 0.00 | 93 | 1011.1 |
| 20260506041647 | 9 | 3 | 6.4 | 9.7 | 0.00 | 0.00 | 0.00 | 93 | 1011.0 |
| 20260506041143 | 9 | 9 | 3.2 | 4.8 | 0.00 | 0.00 | 0.00 | 91 | 1010.9 |
| 20260506040641 | 10 | 40 | 6.4 | 9.7 | 0.00 | 0.00 | 0.00 | 91 | 1010.7 |
| 20260506040138 | 10 | 50 | 4.8 | 6.4 | 0.00 | 0.00 | 0.00 | 91 | 1010.7 |
| 20260506035635 | 10 | 28 | 4.8 | 4.8 | 0.00 | 0.03 | 0.03 | 90 | 1010.5 |
| 20260506035131 | 10 | 40 | 9.7 | 11.3 | 0.00 | 0.03 | 0.03 | 90 | 1010.7 |
| 20260506034629 | 10 | 35 | 4.8 | 6.4 | 0.00 | 0.03 | 0.03 | 90 | 1010.5 |
| 20260506034125 | 10 | 41 | 1.6 | 1.6 | 0.00 | 0.03 | 0.03 | 90 | 1010.6 |
| 20260506033623 | 10 | 35 | 3.2 | 4.8 | 0.00 | 0.03 | 0.03 | 90 | 1010.6 |
| 20260506033119 | 10 | 11 | 4.8 | 4.8 | 0.00 | 0.03 | 0.03 | 90 | 1010.5 |
| 20260506032617 | 10 | 81 | 6.4 | 11.3 | 0.00 | 0.03 | 0.03 | 90 | 1010.5 |
| 20260506032114 | 10 | 52 | 9.7 | 12.9 | 0.00 | 0.03 | 0.03 | 91 | 1010.3 |
| 20260506031611 | 10 | 10 | 9.7 | 11.3 | 0.00 | 0.03 | 0.03 | 91 | 1010.0 |
| 20260506031108 | 10 | 50 | 6.4 | 9.7 | 0.00 | 0.03 | 0.03 | 92 | 1010.0 |
| 20260506030606 | 10 | 13 | 11.3 | 20.9 | 0.00 | 0.03 | 0.03 | 92 | 1010.0 |
| 20260506030103 | 10 | 34 | 4.8 | 9.7 | 0.00 | 0.03 | 0.03 | 92 | 1009.8 |
| 20260506025600 | 10 | 33 | 14.5 | 20.9 | 0.00 | 0.03 | 0.03 | 91 | 1009.3 |
| 20260506025056 | 10 | 68 | 1.6 | 3.2 | 0.00 | 0.03 | 0.03 | 91 | 1009.2 |
| 20260506024553 | 10 | 8 | 11.3 | 17.7 | 0.00 | 0.03 | 0.03 | 91 | 1009.1 |
| 20260506024049 | 10 | 70 | 3.2 | 4.8 | 0.00 | 0.03 | 0.03 | 92 | 1008.9 |
| 20260506023545 | 10 | 85 | 4.8 | 6.4 | 0.00 | 0.03 | 0.03 | 92 | 1008.9 |
| 20260506023043 | 10 | 28 | 9.7 | 12.9 | 0.00 | 0.03 | 0.03 | 92 | 1008.8 |
| 20260506022540 | 10 | 31 | 3.2 | 3.2 | 0.00 | 0.03 | 0.03 | 92 | 1008.6 |
| 20260506022038 | 10 | 45 | 3.2 | 3.2 | 0.00 | 0.03 | 0.03 | 92 | 1008.8 |
| 20260506021535 | 10 | 14 | 12.9 | 12.9 | 0.00 | 0.03 | 0.03 | 92 | 1008.6 |
| 20260506021032 | 10 | 325 | 4.8 | 6.4 | 0.00 | 0.03 | 0.03 | 92 | 1008.7 |
| 20260506020530 | 10 | 91 | 6.4 | 9.7 | 0.00 | 0.03 | 0.03 | 92 | 1008.5 |
| 20260506020027 | 10 | 13 | 8.0 | 12.9 | 0.00 | 0.03 | 0.03 | 92 | 1008.7 |
| 20260506015525 | 10 | 341 | 1.6 | 3.2 | 0.00 | 0.03 | 0.03 | 93 | 1008.7 |
| 20260506015021 | 10 | 53 | 4.8 | 6.4 | 0.00 | 0.03 | 0.03 | 94 | 1008.7 |
| 20260506014519 | 10 | 18 | 9.7 | 12.9 | 0.00 | 0.03 | 0.03 | 94 | 1008.7 |
| 20260506014014 | 10 | 35 | 1.6 | 6.4 | 0.00 | 0.03 | 0.03 | 94 | 1008.7 |
| 20260506013513 | 10 | 343 | 9.7 | 14.5 | 0.00 | 0.03 | 0.03 | 94 | 1008.7 |
| 20260506013009 | 10 | 14 | 4.8 | 6.4 | 0.00 | 0.03 | 0.03 | 93 | 1008.6 |
| 20260506012505 | 10 | 27 | 4.8 | 6.4 | 0.00 | 0.03 | 0.03 | 93 | 1008.6 |
| 20260506012002 | 10 | 16 | 14.5 | 16.1 | 0.00 | 0.03 | 0.03 | 93 | 1008.7 |
| 20260506011500 | 10 | 9 | 6.4 | 9.7 | 0.00 | 0.03 | 0.03 | 94 | 1008.5 |
| 20260506010956 | 10 | 8 | 9.7 | 16.1 | 0.00 | 0.03 | 0.03 | 93 | 1008.6 |
| 20260506010455 | 10 | 13 | 4.8 | 6.4 | 0.00 | 0.03 | 0.03 | 93 | 1008.2 |
| 20260506005951 | 10 | 47 | 1.6 | 3.2 | 0.00 | 0.03 | 0.03 | 94 | 1008.1 |
| 20260506005449 | 10 | 347 | 9.7 | 14.5 | 0.00 | 0.03 | 0.03 | 93 | 1008.1 |
| 20260506004944 | 10 | 350 | 3.2 | 6.4 | 0.00 | 0.03 | 0.03 | 93 | 1008.1 |
| 20260506004442 | 10 | 25 | 4.8 | 9.7 | 0.00 | 0.03 | 0.03 | 94 | 1008.5 |
| 20260506003938 | 10 | 22 | 11.3 | 14.5 | 0.00 | 0.03 | 0.03 | 94 | 1008.3 |
| 20260506003435 | 10 | 12 | 6.4 | 11.3 | 0.00 | 0.03 | 0.03 | 94 | 1008.3 |
| 20260506002931 | 10 | 27 | 8.0 | 11.3 | 0.00 | 0.03 | 0.03 | 94 | 1008.2 |
| 20260506002427 | 10 | 11 | 8.0 | 11.3 | 0.00 | 0.03 | 0.03 | 94 | 1007.8 |
| 20260506001922 | 10 | 354 | 9.7 | 12.9 | 0.00 | 0.03 | 0.03 | 94 | 1007.7 |
| 20260506001420 | 10 | 22 | 8.0 | 14.5 | 0.00 | 0.03 | 0.03 | 94 | 1007.9 |
| 20260506000917 | 10 | 7 | 4.8 | 9.7 | 0.00 | 0.03 | 0.03 | 94 | 1007.7 |
| 20260506000416 | 10 | 40 | 3.2 | 4.8 | 0.00 | 0.03 | 0.03 | 94 | 1007.7 |
| 20260505235911 | 10 | 3 | 9.7 | 11.3 | 0.00 | 0.03 | 0.03 | 94 | 1007.6 |
| 20260505235409 | 11 | 326 | 6.4 | 9.7 | 0.00 | 0.03 | 0.03 | 94 | 1007.7 |
| 20260505234906 | 11 | 5 | 8.0 | 9.7 | 0.00 | 0.03 | 0.03 | 94 | 1007.6 |
| 20260505234403 | 11 | 311 | 11.3 | 14.5 | 0.00 | 0.03 | 0.03 | 94 | 1007.7 |
| 20260505233900 | 11 | 304 | 4.8 | 4.8 | 0.00 | 0.03 | 0.03 | 94 | 1007.3 |
| 20260505233358 | 11 | 49 | 11.3 | 14.5 | 0.00 | 0.03 | 0.03 | 93 | 1006.9 |
| 20260505232855 | 11 | 61 | 8.0 | 12.9 | 0.00 | 0.03 | 0.03 | 94 | 1007.0 |
| 20260505232353 | 11 | 321 | 4.8 | 4.8 | 0.00 | 0.03 | 0.03 | 94 | 1006.9 |
| 20260505231849 | 12 | 27 | 6.4 | 11.3 | 0.00 | 0.03 | 0.03 | 93 | 1007.0 |
| 20260505231347 | 12 | 325 | 6.4 | 9.7 | 0.00 | 0.03 | 0.03 | 92 | 1007.1 |
| 20260505230845 | 12 | 30 | 9.7 | 14.5 | 0.00 | 0.03 | 0.03 | 92 | 1007.1 |
| 20260505230342 | 12 | 357 | 9.7 | 12.9 | 0.00 | 0.03 | 0.03 | 91 | 1007.0 |
| 20260505225839 | 12 | 330 | 4.8 | 4.8 | 0.00 | 0.03 | 0.03 | 90 | 1007.0 |
| 20260505225337 | 12 | 10 | 3.2 | 4.8 | 0.00 | 0.03 | 0.03 | 90 | 1006.8 |
| 20260505224836 | 12 | 356 | 4.8 | 6.4 | 0.00 | 0.03 | 0.03 | 90 | 1006.7 |
| 20260505224335 | 12 | 22 | 8.0 | 11.3 | 0.00 | 0.03 | 0.03 | 90 | 1006.0 |
| 20260505223831 | 12 | 33 | 11.3 | 12.9 | 0.00 | 0.03 | 0.03 | 89 | 1005.6 |
| 20260505223329 | 12 | 1 | 11.3 | 12.9 | 0.00 | 0.03 | 0.03 | 90 | 1006.0 |
| 20260505222824 | 13 | 359 | 12.9 | 14.5 | 0.00 | 0.03 | 0.03 | 90 | 1006.6 |
| 20260505222320 | 13 | 358 | 11.3 | 12.9 | 0.00 | 0.03 | 0.03 | 89 | 1006.8 |
| 20260505221818 | 13 | 7 | 8.0 | 11.3 | 0.00 | 0.03 | 0.03 | 89 | 1007.0 |
| 20260505221314 | 13 | 322 | 4.8 | 4.8 | 0.00 | 0.03 | 0.03 | 89 | 1006.8 |
| 20260505220812 | 13 | 355 | 8.0 | 11.3 | 0.00 | 0.03 | 0.03 | 89 | 1006.5 |
| 20260505220308 | 13 | 32 | 4.8 | 6.4 | 0.00 | 0.03 | 0.03 | 89 | 1006.1 |
| 20260505215807 | 13 | 18 | 8.0 | 9.7 | 0.00 | 0.03 | 0.03 | 89 | 1006.0 |
| 20260505215305 | 14 | 24 | 6.4 | 9.7 | 0.00 | 0.03 | 0.03 | 89 | 1005.8 |
| 20260505214802 | 14 | 54 | 3.2 | 4.8 | 0.00 | 0.03 | 0.03 | 89 | 1005.6 |
| 20260505214259 | 14 | 337 | 14.5 | 22.5 | 0.00 | 0.03 | 0.03 | 88 | 1005.5 |
| 20260505213756 | 14 | 14 | 6.4 | 11.3 | 0.00 | 0.03 | 0.03 | 89 | 1005.7 |
| 20260505213254 | 15 | 12 | 8.0 | 12.9 | 0.00 | 0.03 | 0.03 | 88 | 1005.7 |
| 20260505212749 | 15 | 5 | 8.0 | 11.3 | 0.00 | 0.03 | 0.03 | 89 | 1006.0 |
| 20260505212247 | 15 | 15 | 12.9 | 17.7 | 0.00 | 0.03 | 0.03 | 89 | 1006.1 |
| 20260505211743 | 15 | 329 | 8.0 | 11.3 | 0.00 | 0.03 | 0.03 | 89 | 1006.3 |
| 20260505211241 | 15 | 7 | 6.4 | 9.7 | 0.00 | 0.03 | 0.03 | 89 | 1005.9 |
| 20260505210737 | 15 | 336 | 9.7 | 12.9 | 0.00 | 0.03 | 0.03 | 89 | 1005.7 |
| 20260505210234 | 15 | 29 | 8.0 | 11.3 | 0.00 | 0.03 | 0.03 | 88 | 1005.6 |
| 20260505205732 | 15 | 308 | 6.4 | 6.4 | 0.00 | 0.03 | 0.03 | 87 | 1005.5 |
| 20260505205230 | 16 | 346 | 9.7 | 11.3 | 0.00 | 0.03 | 0.03 | 87 | 1005.3 |
| 20260505204726 | 16 | 350 | 9.7 | 12.9 | 0.00 | 0.03 | 0.03 | 86 | 1005.2 |
| 20260505204224 | 16 | 15 | 8.0 | 11.3 | 0.00 | 0.03 | 0.03 | 86 | 1005.2 |
| 20260505203721 | 16 | 9 | 4.8 | 6.4 | 0.00 | 0.03 | 0.03 | 85 | 1005.7 |
| 20260505203218 | 16 | 47 | 0.0 | 1.6 | 0.00 | 0.03 | 0.03 | 85 | 1005.5 |
| 20260505202713 | 16 | 44 | 1.6 | 3.2 | 0.00 | 0.03 | 0.03 | 85 | 1005.4 |
| 20260505202210 | 16 | 15 | 3.2 | 4.8 | 0.00 | 0.03 | 0.03 | 86 | 1005.5 |
| 20260505201706 | 16 | 309 | 3.2 | 3.2 | 0.00 | 0.03 | 0.03 | 87 | 1005.7 |
| 20260505201204 | 16 | 23 | 6.4 | 11.3 | 0.00 | 0.03 | 0.03 | 88 | 1005.5 |
| 20260505200702 | 15 | 350 | 8.0 | 14.5 | 0.00 | 0.03 | 0.03 | 89 | 1005.6 |
| 20260505200159 | 16 | 42 | 8.0 | 9.7 | 0.00 | 0.03 | 0.03 | 88 | 1005.6 |
| 20260505195654 | 16 | 350 | 3.2 | 3.2 | 0.00 | 0.03 | 0.03 | 87 | 1005.7 |
| 20260505195152 | 16 | 24 | 11.3 | 14.5 | 0.00 | 0.03 | 0.03 | 86 | 1005.6 |
| 20260505194649 | 16 | 22 | 11.3 | 16.1 | 0.00 | 0.03 | 0.03 | 87 | 1005.6 |
| 20260505194145 | 16 | 351 | 9.7 | 14.5 | 0.00 | 0.03 | 0.03 | 87 | 1005.4 |
| 20260505193642 | 16 | 28 | 17.7 | 22.5 | 0.00 | 0.03 | 0.03 | 87 | 1005.4 |
| 20260505193139 | 16 | 355 | 17.7 | 22.5 | 0.00 | 0.03 | 0.03 | 88 | 1005.5 |
| 20260505192638 | 17 | 339 | 16.1 | 20.9 | 0.00 | 0.03 | 0.03 | 88 | 1005.0 |
| 20260505192134 | 17 | 342 | 12.9 | 16.1 | 0.00 | 0.03 | 0.03 | 87 | 1004.8 |
| 20260505191633 | 20 | 7 | 11.3 | 16.1 | 0.00 | 0.03 | 0.03 | 85 | 1003.9 |
| 20260505191131 | 23 | 190 | 11.3 | 14.5 | 0.00 | 0.03 | 0.03 | 77 | 1004.0 |
| 20260505190626 | 23 | 157 | 9.7 | 12.9 | 0.00 | 0.03 | 0.03 | 76 | 1004.1 |
| 20260505190121 | 22 | 166 | 6.4 | 6.4 | 0.00 | 0.03 | 0.03 | 78 | 1004.5 |
| 20260505185618 | 22 | 211 | 3.2 | 3.2 | 0.00 | 0.03 | 0.03 | 77 | 1004.2 |
| 20260505185114 | 22 | 184 | 8.0 | 9.7 | 0.00 | 0.03 | 0.03 | 81 | 1004.3 |
| 20260505184611 | 23 | 117 | 3.2 | 3.2 | 0.00 | 0.03 | 0.03 | 78 | 1004.4 |
| 20260505184108 | 23 | 105 | 8.0 | 12.9 | 0.00 | 0.03 | 0.03 | 77 | 1004.2 |
| 20260505183604 | 23 | 205 | 4.8 | 9.7 | 0.00 | 0.03 | 0.03 | 80 | 1004.2 |
| 20260505183103 | 23 | 109 | 14.5 | 16.1 | 0.00 | 0.03 | 0.03 | 77 | 1004.3 |
| 20260505182558 | 23 | 175 | 11.3 | 16.1 | 0.00 | 0.03 | 0.03 | 78 | 1004.2 |
| 20260505182055 | 22 | 93 | 8.0 | 9.7 | 0.00 | 0.03 | 0.03 | 78 | 1004.6 |
| 20260505181553 | 22 | 185 | 11.3 | 16.1 | 0.00 | 0.03 | 0.03 | 80 | 1004.6 |
| 20260505181050 | 22 | 161 | 16.1 | 17.7 | 0.00 | 0.03 | 0.03 | 81 | 1004.5 |
| 20260505180545 | 22 | 203 | 1.6 | 3.2 | 0.00 | 0.03 | 0.03 | 80 | 1004.6 |
| 20260505180044 | 22 | 172 | 3.2 | 3.2 | 0.00 | 0.03 | 0.03 | 79 | 1004.5 |
| 20260505175543 | 22 | 136 | 4.8 | 4.8 | 0.00 | 0.03 | 0.03 | 80 | 1004.5 |
| 20260505175040 | 22 | 197 | 3.2 | 4.8 | 0.00 | 0.03 | 0.03 | 81 | 1004.5 |
| 20260505174537 | 21 | 174 | 8.0 | 12.9 | 0.00 | 0.03 | 0.03 | 82 | 1004.6 |
| 20260505174033 | 21 | 183 | 11.3 | 16.1 | 0.00 | 0.03 | 0.03 | 81 | 1004.3 |
| 20260505173530 | 21 | 125 | 3.2 | 3.2 | 0.00 | 0.03 | 0.03 | 81 | 1004.2 |
| 20260505173027 | 21 | 166 | 4.8 | 6.4 | 0.00 | 0.03 | 0.03 | 82 | 1004.6 |
| 20260505172525 | 21 | 154 | 4.8 | 6.4 | 0.00 | 0.03 | 0.03 | 82 | 1004.6 |
| 20260505172021 | 22 | 126 | 4.8 | 9.7 | 0.00 | 0.03 | 0.03 | 80 | 1004.5 |
| 20260505171516 | 22 | 135 | 9.7 | 11.3 | 0.00 | 0.03 | 0.03 | 80 | 1004.5 |
| 20260505171013 | 22 | 159 | 14.5 | 20.9 | 0.00 | 0.03 | 0.03 | 80 | 1004.5 |
| 20260505170505 | 22 | 137 | 8.0 | 11.3 | 0.00 | 0.03 | 0.03 | 79 | 1004.6 |
| 20260505170001 | 22 | 129 | 9.7 | 14.5 | 0.00 | 0.03 | 0.03 | 77 | 1004.5 |
| 20260505165456 | 22 | 194 | 6.4 | 12.9 | 0.00 | 0.03 | 0.03 | 78 | 1004.5 |
| 20260505164952 | 22 | 174 | 3.2 | 4.8 | 0.00 | 0.03 | 0.03 | 79 | 1004.5 |
| 20260505164448 | 22 | 161 | 3.2 | 6.4 | 0.00 | 0.03 | 0.03 | 81 | 1004.8 |
| 20260505163946 | 21 | 177 | 6.4 | 9.7 | 0.00 | 0.03 | 0.03 | 80 | 1004.7 |
| 20260505163444 | 21 | 135 | 8.0 | 9.7 | 0.00 | 0.03 | 0.03 | 80 | 1004.8 |
| 20260505162944 | 21 | 134 | 8.0 | 11.3 | 0.00 | 0.03 | 0.03 | 81 | 1004.4 |
| 20260505162439 | 21 | 155 | 3.2 | 4.8 | 0.00 | 0.03 | 0.03 | 81 | 1004.5 |
| 20260505161936 | 22 | 213 | 11.3 | 12.9 | 0.00 | 0.03 | 0.03 | 79 | 1004.5 |
| 20260505161433 | 22 | 159 | 4.8 | 11.3 | 0.00 | 0.03 | 0.03 | 79 | 1004.5 |
| 20260505160930 | 22 | 133 | 8.0 | 11.3 | 0.00 | 0.03 | 0.03 | 78 | 1004.4 |
| 20260505160429 | 22 | 148 | 6.4 | 6.4 | 0.00 | 0.03 | 0.03 | 80 | 1004.2 |
| 20260505152904 | 21 | 99 | 8.0 | 16.1 | 0.00 | 0.03 | 0.03 | 81 | 1004.0 |
| 20260505152402 | 21 | 191 | 11.3 | 22.5 | 0.00 | 0.03 | 0.03 | 81 | 1003.9 |
| 20260505151901 | 21 | 173 | 9.7 | 12.9 | 0.00 | 0.03 | 0.03 | 81 | 1003.9 |
| 20260505151358 | 20 | 183 | 6.4 | 9.7 | 0.00 | 0.03 | 0.03 | 83 | 1004.0 |
| 20260505150849 | 20 | 104 | 12.9 | 14.5 | 0.00 | 0.03 | 0.03 | 84 | 1003.9 |
| 20260505150347 | 20 | 163 | 6.4 | 9.7 | 0.00 | 0.03 | 0.03 | 84 | 1004.1 |
| 20260505140317 | 18 | 145 | 3.2 | 3.2 | 0.00 | 0.03 | 0.03 | 88 | 1004.7 |
| 20260505130240 | 17 | 166 | 1.6 | 3.2 | 0.00 | 0.03 | 0.03 | 91 | 1004.9 |
| 20260505124731 | 17 | 144 | 3.2 | 4.8 | 0.00 | 0.03 | 0.03 | 91 | 1004.9 |
| 20260505124227 | 17 | 161 | 0.0 | 0.0 | 0.00 | 0.03 | 0.03 | 92 | 1004.9 |
| 20260505123722 | 17 | 166 | 1.6 | 1.6 | 0.00 | 0.03 | 0.03 | 92 | 1005.1 |
| 20260505123220 | 16 | 173 | 3.2 | 4.8 | 0.00 | 0.03 | 0.03 | 92 | 1004.9 |
| 20260505122716 | 16 | 118 | 3.2 | 3.2 | 0.00 | 0.03 | 0.03 | 92 | 1004.8 |
| 20260505122214 | 16 | 137 | 0.0 | 1.6 | 0.00 | 0.03 | 0.03 | 92 | 1005.0 |
| 20260505121710 | 16 | 127 | 4.8 | 4.8 | 0.00 | 0.03 | 0.03 | 92 | 1005.0 |
| 20260505121207 | 16 | 134 | 8.0 | 9.7 | 0.00 | 0.03 | 0.03 | 92 | 1005.0 |
| 20260505120703 | 16 | 97 | 8.0 | 11.3 | 0.00 | 0.03 | 0.03 | 92 | 1004.9 |
| 20260505120159 | 16 | 112 | 6.4 | 9.7 | 0.00 | 0.03 | 0.03 | 92 | 1005.0 |
| 20260505115652 | 16 | 84 | 3.2 | 3.2 | 0.00 | 0.03 | 0.03 | 92 | 1005.0 |
| 20260505115151 | 16 | 97 | 6.4 | 9.7 | 0.00 | 0.03 | 0.03 | 92 | 1005.0 |
| 20260505114648 | 16 | 147 | 1.6 | 3.2 | 0.00 | 0.03 | 0.03 | 93 | 1004.8 |
| 20260505114144 | 16 | 53 | 6.4 | 9.7 | 0.00 | 0.03 | 0.03 | 93 | 1004.9 |
| 20260505113640 | 16 | 128 | 6.4 | 6.4 | 0.00 | 0.03 | 0.03 | 93 | 1004.8 |
| 20260505113137 | 16 | 192 | 4.8 | 11.3 | 0.00 | 0.03 | 0.03 | 93 | 1004.8 |
| 20260505112633 | 16 | 113 | 4.8 | 4.8 | 0.00 | 0.03 | 0.03 | 93 | 1004.9 |
| 20260505112132 | 16 | 148 | 6.4 | 6.4 | 0.00 | 0.03 | 0.03 | 93 | 1004.9 |
| 20260505111631 | 16 | 113 | 1.6 | 3.2 | 0.00 | 0.03 | 0.03 | 93 | 1004.8 |
| 20260505111127 | 16 | 141 | 6.4 | 9.7 | 0.00 | 0.03 | 0.03 | 93 | 1004.8 |
| 20260505110624 | 16 | 72 | 4.8 | 6.4 | 0.00 | 0.03 | 0.03 | 93 | 1004.8 |
| 20260505110121 | 16 | 137 | 0.0 | 1.6 | 0.18 | 0.03 | 0.03 | 93 | 1004.6 |